TimeMDT,TemperatureF,Dew PointF,Humidity,Sea Level PressureIn,VisibilityMPH,Wind Direction,Wind SpeedMPH,Gust SpeedMPH,PrecipitationIn,Events,Conditions,WindDirDegrees,DateUTC
12:15 AM,69.8,42.8,38,30.18,10.0,ESE,3.5,-,N/A,,Clear,110,2012-07-11 06:15:00
12:35 AM,69.8,42.8,38,30.17,10.0,Calm,Calm,-,N/A,,Clear,0,2012-07-11 06:35:00
12:55 AM,66.2,44.6,46,30.18,10.0,WSW,5.8,-,N/A,,Clear,250,2012-07-11 06:55:00
1:15 AM,64.4,44.6,49,30.17,10.0,Calm,Calm,-,N/A,,Clear,0,2012-07-11 07:15:00
1:35 AM,66.2,44.6,46,30.17,10.0,South,3.5,-,N/A,,Clear,170,2012-07-11 07:35:00
1:55 AM,64.4,41.0,42,30.16,10.0,South,4.6,-,N/A,,Clear,180,2012-07-11 07:55:00
2:15 AM,64.4,42.8,45,30.16,10.0,SW,3.5,-,N/A,,Clear,220,2012-07-11 08:15:00
2:35 AM,64.4,42.8,45,30.16,10.0,SW,5.8,-,N/A,,Clear,230,2012-07-11 08:35:00
2:55 AM,64.4,44.6,49,30.15,10.0,SW,5.8,-,N/A,,Clear,230,2012-07-11 08:55:00
3:15 AM,66.2,44.6,46,30.15,10.0,SW,4.6,-,N/A,,Clear,230,2012-07-11 09:15:00
3:35 AM,62.6,44.6,52,30.15,10.0,WNW,3.5,-,N/A,,Clear,290,2012-07-11 09:35:00
4:15 AM,62.6,42.8,48,30.14,10.0,Calm,Calm,-,N/A,,Clear,0,2012-07-11 10:15:00
4:35 AM,62.6,42.8,48,30.13,10.0,SW,6.9,-,N/A,,Clear,220,2012-07-11 10:35:00
5:15 AM,64.4,42.8,45,30.12,10.0,Calm,Calm,-,N/A,,Clear,0,2012-07-11 11:15:00
5:35 AM,62.6,42.8,48,30.12,10.0,Calm,Calm,-,N/A,,Clear,0,2012-07-11 11:35:00
5:55 AM,62.6,42.8,48,30.12,10.0,Calm,Calm,-,N/A,,Clear,0,2012-07-11 11:55:00
6:15 AM,64.4,42.8,45,30.12,10.0,South,8.1,-,N/A,,Clear,170,2012-07-11 12:15:00
6:35 AM,59.0,42.8,55,30.13,10.0,West,3.5,-,N/A,,Clear,260,2012-07-11 12:35:00
6:55 AM,60.8,42.8,52,30.14,10.0,Calm,Calm,-,N/A,,Clear,0,2012-07-11 12:55:00
7:15 AM,62.6,44.6,52,30.16,10.0,Calm,Calm,-,N/A,,Clear,0,2012-07-11 13:15:00
7:35 AM,62.6,46.4,55,30.15,10.0,Calm,Calm,-,N/A,,Clear,0,2012-07-11 13:35:00
7:55 AM,66.2,46.4,49,30.20,10.0,NW,10.4,-,N/A,,Clear,320,2012-07-11 13:55:00
8:15 AM,68.0,44.6,43,30.17,10.0,NE,3.5,-,N/A,,Clear,50,2012-07-11 14:15:00
8:35 AM,69.8,42.8,38,30.14,10.0,ESE,13.8,-,N/A,,Clear,110,2012-07-11 14:35:00
8:55 AM,69.8,44.6,40,30.15,10.0,South,6.9,-,N/A,,Clear,170,2012-07-11 14:55:00
9:15 AM,73.4,42.8,33,30.13,10.0,South,15.0,-,N/A,,Clear,190,2012-07-11 15:15:00
9:35 AM,73.4,44.6,36,30.16,10.0,SW,6.9,-,N/A,,Clear,220,2012-07-11 15:35:00
9:55 AM,75.2,44.6,34,30.15,10.0,East,3.5,-,N/A,,Clear,100,2012-07-11 15:55:00
10:15 AM,78.8,44.6,30,30.15,10.0,SSE,6.9,-,N/A,,Clear,150,2012-07-11 16:15:00
10:35 AM,80.6,42.8,26,30.15,10.0,SE,6.9,-,N/A,,Clear,140,2012-07-11 16:35:00
10:55 AM,80.6,44.6,28,30.14,10.0,SE,6.9,-,N/A,,Clear,140,2012-07-11 16:55:00
11:15 AM,80.6,41.0,24,30.13,10.0,South,5.8,-,N/A,,Clear,190,2012-07-11 17:15:00
11:35 AM,82.4,41.0,23,30.13,10.0,ESE,4.6,-,N/A,,Clear,120,2012-07-11 17:35:00
11:55 AM,84.2,39.2,20,30.13,10.0,SSW,8.1,-,N/A,,Clear,200,2012-07-11 17:55:00
12:15 PM,82.4,39.2,21,30.12,10.0,SE,9.2,-,N/A,,Clear,130,2012-07-11 18:15:00
12:35 PM,82.4,39.2,21,30.12,10.0,SE,6.9,-,N/A,,Clear,140,2012-07-11 18:35:00
12:55 PM,80.6,44.6,28,30.12,10.0,Calm,Calm,-,N/A,,Clear,0,2012-07-11 18:55:00
1:15 PM,84.2,42.8,23,30.10,10.0,Calm,Calm,-,N/A,,Clear,0,2012-07-11 19:15:00
1:35 PM,86.0,35.6,17,30.10,10.0,Calm,Calm,-,N/A,,Clear,0,2012-07-11 19:35:00
2:35 PM,82.4,41.0,23,30.17,10.0,West,15.0,31.1,N/A,,Clear,270,2012-07-11 20:35:00
2:55 PM,78.8,41.0,26,30.18,10.0,WSW,20.7,34.5,N/A,,Clear,250,2012-07-11 20:55:00
3:15 PM,80.6,42.8,26,30.16,10.0,SW,10.4,20.7,N/A,,Clear,230,2012-07-11 21:15:00
3:35 PM,80.6,42.8,26,30.15,10.0,WSW,10.4,-,N/A,,Clear,240,2012-07-11 21:35:00
3:55 PM,84.2,41.0,22,30.14,10.0,SW,16.1,24.2,N/A,,Clear,220,2012-07-11 21:55:00
4:15 PM,86.0,41.0,20,30.13,10.0,SW,11.5,20.7,N/A,,Clear,230,2012-07-11 22:15:00
4:35 PM,84.2,39.2,20,30.13,10.0,SSW,8.1,-,N/A,,Clear,200,2012-07-11 22:35:00
4:55 PM,86.0,42.8,22,30.13,10.0,SE,13.8,20.7,N/A,,Clear,130,2012-07-11 22:55:00
5:35 PM,84.2,41.0,22,30.12,10.0,SE,11.5,18.4,N/A,,Clear,140,2012-07-11 23:35:00
5:55 PM,82.4,41.0,23,30.11,10.0,ESE,11.5,-,N/A,,Clear,120,2012-07-11 23:55:00
6:15 PM,82.4,41.0,23,30.11,10.0,ESE,10.4,-,N/A,,Clear,120,2012-07-12 00:15:00
6:35 PM,80.6,42.8,26,30.15,10.0,East,3.5,-,N/A,Thunderstorm,Mostly Cloudy,100,2012-07-12 00:35:00
7:15 PM,73.4,50.0,44,30.16,10.0,North,12.7,23.0,N/A,,Scattered Clouds,10,2012-07-12 01:15:00
7:55 PM,69.8,50.0,49,30.16,10.0,North,9.2,-,N/A,,Clear,10,2012-07-12 01:55:00
8:15 PM,69.8,50.0,49,30.16,10.0,NNW,6.9,-,N/A,,Clear,340,2012-07-12 02:15:00
8:35 PM,69.8,48.2,46,30.17,10.0,NNW,8.1,-,N/A,,Clear,330,2012-07-12 02:35:00
8:55 PM,68.0,48.2,49,30.18,10.0,North,6.9,-,N/A,,Clear,360,2012-07-12 02:55:00
9:15 PM,66.2,48.2,52,30.18,10.0,North,5.8,-,N/A,,Clear,350,2012-07-12 03:15:00
9:35 PM,66.2,48.2,52,30.19,10.0,North,4.6,-,N/A,,Partly Cloudy,350,2012-07-12 03:35:00
9:55 PM,66.2,48.2,52,30.18,10.0,Calm,Calm,-,N/A,,Partly Cloudy,0,2012-07-12 03:55:00
10:15 PM,66.2,48.2,52,30.19,10.0,NE,4.6,-,N/A,,Clear,50,2012-07-12 04:15:00
10:35 PM,66.2,48.2,52,30.21,10.0,WSW,3.5,-,N/A,,Partly Cloudy,250,2012-07-12 04:35:00
10:55 PM,69.8,44.6,40,30.23,10.0,SW,18.4,31.1,N/A,,Mostly Cloudy,230,2012-07-12 04:55:00
11:15 PM,66.2,46.4,49,30.20,10.0,SW,17.3,33.4,0.01,,Partly Cloudy,230,2012-07-12 05:15:00
11:55 PM,66.2,44.6,46,30.17,10.0,SW,10.4,20.7,0.01,,Clear,230,2012-07-12 05:55:00